Le nostre stazioni meteo in Italia

Pubblicità
Il mio iltempo24.it
Ferrara, Italia (16138): Temperatura & dewpoint: 14.08.2017 05:00:00 - 20.08.2017 05:00:00 (CEST)Ferrara, Italia (16138): velocità del vento: 14.08.2017 05:00:00 - 20.08.2017 05:00:00 (CEST)Ferrara, Italia (16138): direzione del vento: 14.08.2017 05:00:00 - 20.08.2017 05:00:00 (CEST)Ferrara, Italia (16138): reduced air pressure: 14.08.2017 05:00:00 - 20.08.2017 05:00:00 (CEST)Ferrara, Italia (16138): visibility: 14.08.2017 05:00:00 - 20.08.2017 05:00:00 (CEST)
Data & Tempo tt [°C] td [°C] ff [km/h] ff [kn] dd ppp [hPa] vv [km]
20.08.2017 05:00:00 - - - - - - -
20.08.2017 04:00:00 - - - - - - -
20.08.2017 03:00:00 - - - - - - -
20.08.2017 02:00:00 - - - - - - -
20.08.2017 01:00:00 - - - - - - -
20.08.2017 00:00:00 - - - - - - -
19.08.2017 23:00:00 - - - - - - -
19.08.2017 22:00:00 - - - - - - -
19.08.2017 21:00:00 - - - - - - -
19.08.2017 20:00:00 28,4 22,9 11 6 ENE 1010,3 20
19.08.2017 19:00:00 30,0 22,0 15 8 NE - 10
19.08.2017 18:00:00 33,0 23,0 9 5 NE - 10
19.08.2017 17:00:00 34,0 22,1 5 3 ENE 1010,5 20
19.08.2017 16:00:00 34,0 22,0 9 5 E - 10
19.08.2017 15:00:00 35,0 23,0 5 3 ENE - 10
19.08.2017 14:00:00 34,8 23,5 5 3 SSO 1012,0 20
19.08.2017 13:00:00 33,0 25,0 4 2 NNE - 10
19.08.2017 12:00:00 30,0 24,0 4 2 N - 10
19.08.2017 11:00:00 29,0 24,5 5 3 NO 1012,6 15
19.08.2017 10:00:00 25,0 23,0 4 2 OSO - 10
19.08.2017 09:00:00 25,0 23,0 5 3 N - 10
19.08.2017 08:00:00 22,4 21,7 8 4 O 1012,4 11
19.08.2017 07:00:00 - - - - - - -
19.08.2017 06:00:00 - - - - - - -
19.08.2017 05:00:00 - - - - - - -
19.08.2017 04:00:00 - - - - - - -
19.08.2017 03:00:00 - - - - - - -
19.08.2017 02:00:00 - - - - - - -
19.08.2017 01:00:00 - - - - - - -
19.08.2017 00:00:00 - - - - - - -
18.08.2017 23:00:00 - - - - - - -
18.08.2017 22:00:00 - - - - - - -
18.08.2017 21:00:00 - - - - - - -
18.08.2017 20:00:00 31,6 18,2 11 6 ESE 1013,2 25
18.08.2017 19:00:00 34,0 18,0 8 4 SE - 10
18.08.2017 18:00:00 35,0 18,0 5 3 ONO - 10
18.08.2017 17:00:00 35,6 19,1 8 4 ENE 1014,5 25
18.08.2017 16:00:00 36,0 20,0 13 7 NE - 10
18.08.2017 15:00:00 37,0 21,0 13 7 O - 10
18.08.2017 14:00:00 37,2 20,9 5 3 E 1016,3 20
18.08.2017 13:00:00 35,0 21,0 9 5 ONO - 10
18.08.2017 12:00:00 34,0 22,0 8 4 E - 10
18.08.2017 11:00:00 32,4 22,5 4 2 NNE 1017,6 20
18.08.2017 10:00:00 28,0 22,0 4 2 ONO - 10
18.08.2017 09:00:00 25,0 21,0 0 0 N - 10
18.08.2017 08:00:00 20,4 18,9 0 0 N 1017,3 20
18.08.2017 07:00:00 - - - - - - -
18.08.2017 06:00:00 - - - - - - -
18.08.2017 05:00:00 - - - - - - -
18.08.2017 04:00:00 - - - - - - -
18.08.2017 03:00:00 - - - - - - -
18.08.2017 02:00:00 - - - - - - -
18.08.2017 01:00:00 - - - - - - -
18.08.2017 00:00:00 - - - - - - -
17.08.2017 23:00:00 - - - - - - -
17.08.2017 22:00:00 - - - - - - -
17.08.2017 21:00:00 - - - - - - -
17.08.2017 20:00:00 31,8 22,2 8 4 ENE 1016,0 25
17.08.2017 19:00:00 33,0 22,0 9 5 ESE - 10
17.08.2017 18:00:00 34,0 22,0 8 4 E - 10
17.08.2017 17:00:00 34,8 22,2 5 3 SSO 1016,1 20
17.08.2017 16:00:00 35,0 22,0 8 4 S - 10
17.08.2017 15:00:00 35,0 24,0 5 3 SE - 10
17.08.2017 14:00:00 33,6 23,0 5 3 OSO 1017,5 20
17.08.2017 13:00:00 33,0 24,0 5 3 NE - 10
17.08.2017 12:00:00 32,0 25,0 4 2 S - 10
17.08.2017 11:00:00 31,0 24,4 4 2 NNO 1018,2 20
17.08.2017 10:00:00 27,0 23,0 0 0 N - 10
17.08.2017 09:00:00 25,0 21,0 0 0 N - 10
17.08.2017 08:00:00 23,4 20,2 4 2 N 1017,9 20
17.08.2017 07:00:00 - - - - - - -
17.08.2017 06:00:00 - - - - - - -
17.08.2017 05:00:00 - - - - - - -
17.08.2017 04:00:00 - - - - - - -
17.08.2017 03:00:00 - - - - - - -
17.08.2017 02:00:00 - - - - - - -
17.08.2017 01:00:00 - - - - - - -
17.08.2017 00:00:00 - - - - - - -
16.08.2017 23:00:00 - - - - - - -
16.08.2017 22:00:00 - - - - - - -
16.08.2017 21:00:00 - - - - - - -
16.08.2017 20:00:00 30,8 21,6 5 3 E 1016,2 30
16.08.2017 19:00:00 32,0 22,0 8 4 ESE - 10
16.08.2017 18:00:00 33,0 21,0 5 3 S - 10
16.08.2017 17:00:00 34,0 20,7 8 4 ENE 1016,6 30
16.08.2017 16:00:00 34,0 21,0 9 5 ENE - 10
16.08.2017 15:00:00 34,0 21,0 5 3 NE - 10
16.08.2017 14:00:00 34,0 22,1 5 3 N 1017,5 30
16.08.2017 13:00:00 32,0 22,0 4 2 OSO - 10
16.08.2017 12:00:00 31,0 21,0 5 3 E - 10
16.08.2017 11:00:00 29,8 22,0 0 0 N 1018,5 35
16.08.2017 10:00:00 26,0 21,0 0 0 N - 10
16.08.2017 09:00:00 25,0 20,0 4 2 SE - 10
16.08.2017 08:00:00 21,8 19,2 0 0 N 1018,1 40
16.08.2017 07:00:00 - - - - - - -
16.08.2017 06:00:00 - - - - - - -
16.08.2017 05:00:00 - - - - - - -
16.08.2017 04:00:00 - - - - - - -
16.08.2017 03:00:00 - - - - - - -
16.08.2017 02:00:00 - - - - - - -
16.08.2017 01:00:00 - - - - - - -
16.08.2017 00:00:00 - - - - - - -
15.08.2017 23:00:00 - - - - - - -
15.08.2017 22:00:00 - - - - - - -
15.08.2017 21:00:00 - - - - - - -
15.08.2017 20:00:00 30,4 17,1 9 5 S 1017,9 30
15.08.2017 19:00:00 32,0 18,0 9 5 SE - 10
15.08.2017 18:00:00 34,0 17,0 8 4 S - 10
15.08.2017 17:00:00 35,0 18,1 5 3 O 1018,1 30
15.08.2017 16:00:00 35,0 19,0 5 3 S - 10
15.08.2017 15:00:00 35,0 19,0 4 2 SSO - 10
15.08.2017 14:00:00 34,0 18,9 5 3 O 1019,6 30
15.08.2017 13:00:00 33,0 19,0 5 3 ESE - 10
15.08.2017 12:00:00 32,0 21,0 8 4 SSE - 10
15.08.2017 11:00:00 29,8 22,0 8 4 ONO 1020,4 30
15.08.2017 10:00:00 27,0 22,0 8 4 N - 10
15.08.2017 09:00:00 25,0 21,0 4 2 E - 10
15.08.2017 08:00:00 22,4 19,8 4 2 ENE 1020,3 30
15.08.2017 07:00:00 - - - - - - -
15.08.2017 06:00:00 - - - - - - -
15.08.2017 05:00:00 - - - - - - -
15.08.2017 04:00:00 - - - - - - -
15.08.2017 03:00:00 - - - - - - -
15.08.2017 02:00:00 - - - - - - -
15.08.2017 01:00:00 - - - - - - -
15.08.2017 00:00:00 - - - - - - -
14.08.2017 23:00:00 - - - - - - -
14.08.2017 22:00:00 - - - - - - -
14.08.2017 21:00:00 - - - - - - -
14.08.2017 20:00:00 28,6 16,2 9 5 ESE 1018,8 30
14.08.2017 19:00:00 30,0 17,0 9 5 ONO - 10
14.08.2017 18:00:00 31,0 17,0 9 5 E - 10
14.08.2017 17:00:00 31,4 17,7 11 6 SO 1018,8 30
14.08.2017 16:00:00 32,0 18,0 9 5 NO - 10
14.08.2017 15:00:00 32,0 20,0 9 5 SSE - 10
14.08.2017 14:00:00 32,0 20,0 9 5 SE 1019,8 30
14.08.2017 13:00:00 32,0 20,0 8 4 ESE - 10
14.08.2017 12:00:00 31,0 21,0 4 2 NE - 10
14.08.2017 11:00:00 29,6 21,0 9 5 SSO 1020,0 30
14.08.2017 10:00:00 27,0 19,0 9 5 ENE - 10
14.08.2017 09:00:00 24,0 20,0 5 3 O - 10
14.08.2017 08:00:00 21,0 18,4 5 3 ENE 1019,1 30
14.08.2017 07:00:00 - - - - - - -
14.08.2017 06:00:00 - - - - - - -
14.08.2017 05:00:00 - - - - - - -

tt = Temperatura
td = dewpoint
ff = velocità del vento
dd = direzione del vento
ppp = reduced air pressure
vv = visibility

Stazioni seguenti

WeatherPro
AMSI
MeteoEarth